Location: Norton
(51.3000°N, 0.8167°E)
Time: 11:55:29
(UTC+00:00)

DMSP B5D1-3 - Pass Details

Date: 03 March 2021
Orbit: 767 x 780 km, 98.5° (Epoch: 11 April)

Event Time Altitude Azimuth Distance (km) Brightness Sun altitude
Rises 18:45:53 0° 16° (NNE) 3,274 7.6 -10.9°
Reaches altitude 10° 18:48:14 10° 19° (NNE) 2,343 6.9 -11.3°
Maximum altitude 18:53:23 68° 103° (ESE) 844 4.5 -12.1°
Drops below altitude 10° 18:58:30 10° 186° (S) 2,329 7.0 -12.9°
Sets 19:00:49 0° 189° (S) 3,253 7.8 -13.2°
